This is the latest recevied weather packets stored in our database for station/object N1JOV-7. If no packets are shown the sender has not sent any weather packets the latest 10 day(s).
| Time | Temp. | Humidity | Pressure | Rain* | Wind** | Luminosity | Snow |
|---|---|---|---|---|---|---|---|
| 1777656661 | 15.56° C | 49% | 1007.7 hPa | 0 mm | - | - | - |
| 1777656061 | 14.44° C | 51% | 1007.6 hPa | 0 mm | - | - | - |
| 1777655461 | 14.44° C | 52% | 1007.6 hPa | 0 mm | - | - | - |
| 1777654861 | 13.89° C | 53% | 1007.8 hPa | 0 mm | - | - | - |
| 1777654262 | 13.89° C | 54% | 1007.9 hPa | 0 mm | - | - | - |
| 1777653662 | 13.33° C | 53% | 1007.7 hPa | 0 mm | - | - | - |
| 1777653062 | 13.89° C | 53% | 1007.8 hPa | 0 mm | - | - | - |
| 1777652462 | 15° C | 52% | 1007.9 hPa | 0 mm | - | - | - |
| 1777651862 | 14.44° C | 53% | 1008 hPa | 0 mm | - | - | - |
| 1777651261 | 14.44° C | 54% | 1008 hPa | 0 mm | - | - | - |
| 1777650661 | 14.44° C | 54% | 1008.2 hPa | 0 mm | - | - | - |
| 1777650061 | 13.89° C | 55% | 1008.1 hPa | 0 mm | - | - | - |
| 1777649461 | 13.89° C | 55% | 1008.1 hPa | 0 mm | - | - | - |
| 1777648862 | 12.78° C | 55% | 1008.3 hPa | 0 mm | - | - | - |
| 1777648262 | 12.78° C | 56% | 1008.2 hPa | 0 mm | - | - | - |
| 1777647662 | 13.33° C | 56% | 1008.3 hPa | 0 mm | - | - | - |
| 1777647062 | 13.33° C | 56% | 1008.4 hPa | 0 mm | - | - | - |
| 1777646462 | 12.22° C | 56% | 1008.5 hPa | 0 mm | - | - | - |
| 1777645862 | 12.22° C | 57% | 1008.5 hPa | 0 mm | - | - | - |
| 1777645261 | 11.67° C | 59% | 1008.6 hPa | 0 mm | - | - | - |
| 1777644661 | 11.67° C | 58% | 1008.6 hPa | 0 mm | - | - | - |
| 1777644062 | 11.67° C | 60% | 1008.4 hPa | 0 mm | - | - | - |
| 1777643462 | 11.11° C | 61% | 1008.5 hPa | 0 mm | - | - | - |
| 1777642862 | 11.67° C | 66% | 1008.3 hPa | 0 mm | - | - | - |
| 1777642262 | 11.11° C | 68% | 1008.3 hPa | 0 mm | - | - | - |
* Rain latest hour (hover to see other rain measurements)
** Current wind speed in m/s (hover to see current wind gust speed)